This demonstration page uses our WeatherBlox Daily Observations layout. Learn more.

Left ArrowRight Arrow

Hourly Observations for February 10, 2019

Temp ( °F °C ) Dew Point ( °F °C ) Humidity (%) Winds ( mph kmh ) Pressure ( in mb ) Visibility ( mi km ) Precip ( " mm )
12:53 am 00:53 Clear 20 -6.7 14 -10 78 78 E 3 6 30.66 1038 10 16.0934 N/A
1:53 am 01:53 Clear 19 -7.2 14 -10 81 81 N N/A 30.66 1038 10 16.0934 N/A
2:53 am 02:53 Clear 19 -7.2 14 -10 81 81 N N/A 30.63 1037 10 16.0934 N/A
3:53 am 03:53 Clear 18 -7.8 13 -10.6 81 81 N N/A 30.6 1036 10 16.0934 N/A
4:53 am 04:53 Clear 20 -6.7 14 -10 78 78 NE 6 9 30.58 1036 10 16.0934 N/A
5:53 am 05:53 Clear 20 -6.7 15 -9.4 81 81 ENE 5 7 30.56 1035 10 16.0934 N/A
6:53 am 06:53 Clear 22 -5.6 16 -8.9 78 78 ENE 6 9 30.53 1034 10 16.0934 N/A
7:53 am 07:53 Mostly Cloudy 23 -5 17 -8.3 78 78 E 5 7 30.52 1033 10 16.0934 N/A
8:53 am 08:53 Cloudy 25 -3.9 17 -8.3 72 72 E 3 6 30.54 1034 10 16.0934 N/A
9:53 am 09:53 Cloudy 27 -2.8 18 -7.8 69 69 N N/A 30.53 1034 10 16.0934 N/A
10:53 am 10:53 Cloudy 29 -1.7 19 -7.2 66 66 N N/A 30.51 1033 10 16.0934 N/A
11:10 am 11:10 Cloudy with Light Snow 29 -1.7 20 -6.7 69 69 N N/A 30.52 1033 2 3.21868 N/A
11:13 am 11:13 Cloudy with Light Snow 29 -1.7 21 -6.1 72 72 S 3 6 30.51 1033 1.5 2.41401 N/A
11:38 am 11:38 Cloudy with Light Snow 29 -1.7 23 -5 78 78 ESE 3 6 30.49 1032 2 3.21868 N/A
11:49 am 11:49 Cloudy with Light Snow 28 -2 25 -4 86 86 ESE 5 7 30.48 1032 4 6.43736 N/A
11:53 am 11:53 Cloudy with Light Snow 29 -1.7 23 -5 78 78 ESE 6 9 30.46 1032 5 8.0467 N/A
12:31 pm 12:31 Cloudy with Light Snow 30 -1.1 25 -3.9 82 82 ESE 5 7 30.45 1031 1.75 2.816345 0.01 0.254
12:39 pm 12:39 Cloudy with Light Snow 30 -1.1 26 -3.3 85 85 ESE 5 7 30.44 1031 1.25 2.011675 0.01 0.254
12:53 pm 12:53 Cloudy with Light Snow 30 -1.1 26 -3.3 85 85 ESE 5 7 30.42 1030 1.25 2.011675 0.02 0.508
1:34 pm 13:34 Cloudy with Light Snow 30 -1.1 28 -2.2 92 92 E 3 6 30.41 1030 1.25 2.011675 0.02 0.508
1:53 pm 13:53 Cloudy with Light Snow 31 -0.6 28 -2.2 89 89 E 3 6 30.39 1029 1.25 2.011675 0.02 0.508
2:18 pm 14:18 Cloudy with Light Snow 31 -0.6 29 -1.7 92 92 E 3 6 30.39 1029 1.25 2.011675 0.02 0.508
2:26 pm 14:26 Cloudy with Light Snow 31 -0.6 29 -1.7 92 92 N N/A 30.39 1029 2 3.21868 0.02 0.508
2:33 pm 14:33 Cloudy with Light Snow 31 -0.6 29 -1.7 92 92 E 5 7 30.38 1029 2 3.21868 0.03 0.762
2:46 pm 14:46 Cloudy with Light Wintry Mix 31 -0.6 30 -1.1 96 96 E 6 9 30.36 1028 2.5 4.02335 0.03 0.762
2:53 pm 14:53 Cloudy with Light Wintry Mix 32 undefined 30 -1.1 92 92 E 5 7 30.35 1028 2.5 4.02335 0.03 0.762
3:00 pm 15:00 Cloudy with Light Wintry Mix 32 undefined 30 -1.1 92 92 E 6 9 30.34 1028 3 4.82802 N/A
3:09 pm 15:09 Cloudy with Light Wintry Mix 32 undefined 30 -1.1 92 92 E 6 9 30.34 1028 3 4.82802 N/A
3:38 pm 15:38 Cloudy with Light Wintry Mix 32 undefined 30 -1.1 92 92 N N/A 30.33 1027 3 4.82802 N/A
3:53 pm 15:53 Cloudy with Mist and Fog 33 0.6 30 -1.1 89 89 E 3 6 30.32 1027 3 4.82802 N/A
4:12 pm 16:12 Cloudy with Light Rain 33 0.6 31 -0.6 92 92 N N/A 30.33 1027 4 6.43736 N/A
4:30 pm 16:30 Cloudy with Mist and Fog 34 1.1 31 -0.6 89 89 N N/A 30.32 1027 6 9.65604 N/A
4:53 pm 16:53 Cloudy with Light Rain 34 1.1 32 undefined 92 92 SSE 3 6 30.3 1026 5 8.0467 N/A
5:53 pm 17:53 Cloudy with Light Rain 34 1.1 32 undefined 92 92 VRB 3 6 30.29 1026 6 9.65604 N/A
6:10 pm 18:10 Cloudy with Light Rain 34 1.1 31 -0.6 89 89 VRB 5 7 30.29 1026 6 9.65604 N/A
6:18 pm 18:18 Cloudy with Light Rain 34 1.1 31 -0.6 89 89 VRB 3 6 30.29 1026 6 9.65604 N/A
6:53 pm 18:53 Cloudy 34 1.1 31 -0.6 89 89 N N/A 30.28 1025 8 12.87472 N/A
7:01 pm 19:01 Cloudy 34 1.1 31 -0.6 89 89 N N/A 30.29 1026 7 11.26538 N/A
7:15 pm 19:15 Cloudy 34 1.1 31 -0.6 89 89 N N/A 30.28 1025 8 12.87472 N/A
7:53 pm 19:53 Cloudy 34 1.1 31 -0.6 89 89 N N/A 30.27 1025 7 11.26538 N/A
8:53 pm 20:53 Cloudy with Light Rain 34 1.1 32 undefined 92 92 E 3 6 30.26 1025 4 6.43736 N/A
9:06 pm 21:06 Cloudy with Mist and Fog 34 1.1 32 undefined 92 92 N N/A 30.27 1025 2.5 4.02335 N/A
9:20 pm 21:20 Cloudy with Mist and Fog 34 1.1 32 undefined 92 92 N N/A 30.26 1025 1.5 2.41401 N/A
9:30 pm 21:30 Cloudy with Mist and Fog 34 1.1 32 undefined 92 92 N N/A 30.26 1025 1.25 2.011675 N/A
9:53 pm 21:53 Cloudy with Mist and Fog 34 1.1 32 undefined 92 92 N N/A 30.25 1024 1.5 2.41401 N/A
10:21 pm 22:21 Cloudy with Mist and Fog 34 1.1 32 undefined 92 92 N N/A 30.26 1025 2 3.21868 N/A
10:53 pm 22:53 Cloudy with Mist and Fog 34 1.1 32 undefined 92 92 N N/A 30.23 1024 1.75 2.816345 N/A
11:23 pm 23:23 Cloudy with Mist and Fog 34 1.1 32 undefined 92 92 S 3 6 30.24 1024 2 3.21868 N/A
11:33 pm 23:33 Cloudy with Mist and Fog 34 1.1 33 0.6 97 97 N N/A 30.23 1024 1.75 2.816345 N/A
11:53 pm 23:53 Cloudy with Mist and Fog 34 1.1 33 0.6 97 97 N N/A 30.22 1023 2 3.21868 N/A

Powered by AerisWeather